Rbgn^[z[y[W
メイン
   新天体発見情報
     Comet P/2020 O1 (Lemmon-PANSTARRS)
投稿するにはまず登録を

スレッド表示 | 新しいものから 前のトピック | 次のトピック | 下へ
投稿者 スレッド
佐藤裕久
投稿日時: 2020-8-25 17:36
モデレータ
登録日: 2005-6-12
居住地: 日本
投稿: 2585
オンライン
Comet P/2020 O1 (Lemmon-PANSTARRS)

R. Weryk (ハワイ大学, 天文学研究所)の通報によると、7月20日UT、HaleakalaにあるPan-STARRS1
1.8-m Ritchey-Chretien反射望遠鏡で得た3枚の45秒w-バンド画像から彗星を発見した。
この天体は、拡散した0".5のコマ(半値全幅(FWHM)は1".48のシーンイングで約1".94であった)が
見え、p.a. 245°に向かって明らかに真直ぐな尾が8"以上伸びている(恒星により不明瞭な尾)。
また、6月27日にPan-STARRS1による発見前の観測があった。
この天体は、7月19.4日、K. W. WierzchosによってMt Lemmon サーベイの1.5-m反射望遠鏡で得た
画像から小惑星状天体として独立発見し通報されていた。
小惑星センターのPCCP webpageに公表後、E. Guido (Castellammare di Stabia, イタリアの報告
では、F. Coccia, A. Noscheseと彼が、7月22.9日、0.5-m f/8 Ritchey-Chretien 反射望遠鏡, 
Osservatorio Salvatore di Giacomo, Agerola: フィルターなし90秒露出37枚のスタックで、
こじんまりした約5"のコマとp.a. 225°に5"の尾がみえた)ら、他のCCD位置観測者によって彗星状
と観測された。

彗星機能の報告は次の通り:

OC   Date        Reporter           Coma    Tail    PA          Exposures
F51  2020-07-20  R. Weryk           0".46     8"    245           3x45s
568  2020-07-21  R. Weryk           0".09    20"    245           3x90s
L07  2020-07-22  E. Guido           5"        5"    225          37x90s
204  2020-07-25  A. Aletti          6"        8"    205          60x60s
204  2020-07-27  L. Buzzi           8"        8"    245          45x60s
204  2020-07-25  A. Aletti          12"         
X02  2020-07-28  E. Bryssinck       9"       12"
F51  2020-07-29  Y. Ramanjooloo     1".8     11"    280

発見位置は次のとおり、

     2020 UT             R.A. (2000) Decl.       Mag.   Observer
     June 27.41677   20 48 15.90   -10 16 45.3   21.1   Pan-STARRS1
          27.42845   20 48 15.60   -10 16 45.7   21.1     "
          27.44010   20 48 15.33   -10 16 46.7   21.0     "
          27.45170   20 48 15.02   -10 16 47.3   21.2     "
     July 19.40709   20 34 36.76   -11 12 42.6   20.2   Wierzchos
          19.41189   20 34 36.54   -11 12 42.9   20.6     "
          19.41669   20 34 36.22   -11 12 44.1   21.0     "
          19.42152   20 34 35.99   -11 12 46.0   20.6     "
          20.44295   20 33 46.66   -11 16 59.4   20.6   Pan-STARRS1
          20.45467   20 33 46.06   -11 17 02.3   20.6     "
          20.46640   20 33 45.47   -11 17 05.3   20.6     "
          20.47813   20 33 44.86   -11 17 08.3   20.7     "

MPCの楕円軌道要素、位置推算表は次のとおり、

Orbital elements:
    P/2020 O1 (Lemmon-PANSTARRS)                                                
Epoch 2020 Apr. 21.0 TT = JDT 2458960.5                                         
T 2020 May 3.66212 TT                                   Rudenko                 
q   2.3287511            (2000.0)            P               Q                  
n   0.22890919     Peri.  104.75111     +0.18723107     +0.98229563             
a   2.6466341      Node   176.02390     -0.93263671     +0.17977530             
e   0.1201084      Incl.    5.22088     -0.30843686     +0.05268897             
P   4.31                                                                        
From 60 observations 2020 June 27-Aug. 1, mean residual 0".5.                   
                                                                                
    P/2020 O1 (Lemmon-PANSTARRS)                                                
Epoch 2024 Sept. 7.0 TT = JDT 2460560.5                                         
T 2024 Aug. 19.95734 TT                                 Rudenko                 
q   2.3314904            (2000.0)            P               Q                  
n   0.22897853     Peri.  104.19054     +0.17686899     +0.98421371             
a   2.6460997      Node   175.98047     -0.93448963     +0.16996158             
e   0.1188955      Incl.    5.22379     -0.30894415     +0.04936023             
P   4.30                                                                        
From 60 observations 2020 June 27-Aug. 1, mean residual 0".5.                   
                                                                                
    P/2020 O1 (Lemmon-PANSTARRS)                                                
Epoch 2020 May 31.0 TT = JDT 2459000.5                                          
T 2020 May 3.52917 TT                                   Rudenko                 
q   2.3287446            (2000.0)            P               Q                  
n   0.22889365     Peri.  104.72108     +0.18656138     +0.98242295             
a   2.6467539      Node   176.01483     -0.93275923     +0.17914417             
e   0.1201507      Incl.    5.22113     -0.30847215     +0.05246441             
P   4.31                                                                        
From 60 observations 2020 June 27-Aug. 1, mean residual 0".5.                   
                                                                                
Ephemeris:
Date    TT    R. A. (2000) Decl.     Delta      r    Elong.  Phase   m1
2020 07 03    20 45 45.4 -10 23 48   1.4074  2.3406   149.4    12.8  19.9
...
2020 07 18    20 35 44.2 -11 06 58   1.3500  2.3472   165.2     6.3  19.9
...
2020 07 26    20 29 09.4 -11 41 58   1.3411  2.3512   172.1     3.4  19.9
...
2020 08 01    20 24 06.8 -12 11 49   1.3448  2.3545   172.2     3.3  19.9
2020 08 02    20 23 17.1 -12 17 00   1.3463  2.3550   171.7     3.6  19.9
2020 08 03    20 22 27.8 -12 22 13   1.3481  2.3556   171.0     3.9  19.9
...
2020 08 09    20 17 43.8 -12 54 08   1.3638  2.3592   165.5     6.2  19.9
...
2020 08 17    20 12 14.2 -13 36 47   1.3983  2.3642   157.1     9.6  20.0
...
2020 09 01    20 05 52.4 -14 49 25   1.5009  2.3746   141.4    15.4  20.1

(MPEC 2020-P07、CBET 4820)

スレッド表示 | 新しいものから 前のトピック | 次のトピック | トップ

投稿するにはまず登録を
 
© 1999 Tsutomu Seki.